Location: Newark
(35.8833°N, 14.5000°E)
Time: 10:03:28
(UTC+00:00)

BEESAT - Pass Details

Date: 13 November 2019
Orbit: 701 x 709 km, 98.6° (Epoch: 14 December)

Event Time Altitude Azimuth Distance (km) Brightness Sun altitude
Rises 17:54:20 0° 349° (N) 3,093 ? -24.0°
Reaches altitude 10° 17:57:56 10° 320° (NW) 2,171 ? -24.7°
Maximum altitude 17:59:50 12° 297° (WNW) 2,011 ? -25.1°
Drops below altitude 10° 18:01:43 10° 273° (W) 2,167 ? -25.5°
Sets 18:05:19 0° 244° (WSW) 3,081 ? -26.2°
